This demonstration page uses our WeatherBlox Daily Observations layout. Learn more.

Left ArrowRight Arrow

44.8408, -93.29828

Hourly Observations for August 28, 2021

Temp ( °F °C ) Dew Point ( °F °C ) Humidity (%) Winds ( mph kmh ) Pressure ( in mb ) Visibility ( mi km ) Precip ( " mm )
12:53 am 00:53 Mostly Clear 71 21.7 70 21.1 96 96 Calm 29.88 1012 10 16 0.00 0.00
1:53 am 01:53 Mostly Clear 70 21.1 69 20.6 97 97 ESE 6 9 29.88 1012 10 16 0.00 0.00
2:53 am 02:53 Mostly Clear 70 21.1 69 20.6 97 97 E 5 7 29.88 1012 7 11 0.00 0.00
3:53 am 03:53 Cloudy 71 21.7 69 20.6 94 94 E 6 9 29.90 1012 10 16 0.00 0.00
4:53 am 04:53 Partly Cloudy 70 21.1 69 20.6 97 97 SE 5 7 29.89 1012 10 16 0.00 0.00
5:53 am 05:53 Mostly Cloudy 70 21.1 67 19.4 90 90 ESE 8 13 29.90 1013 10 16 0.00 0.00
6:53 am 06:53 Mostly Cloudy 69 20.6 66 18.9 90 90 SE 7 11 29.92 1013 10 16 0.00 0.00
7:53 am 07:53 Mostly Sunny 70 21.1 66 18.9 87 87 SE 8 13 29.90 1013 10 16 0.00 0.00
8:53 am 08:53 Partly Cloudy 73 22.8 67 19.4 81 81 SSE 7 11 29.90 1013 10 16 0.00 0.00
9:53 am 09:53 Mostly Cloudy 76 24.4 69 20.6 79 79 SSE 8 13 29.89 1012 10 16 0.00 0.00
10:53 am 10:53 Partly Cloudy 82 27.8 71 21.7 69 69 SSW 14 22 29.90 1013 10 16 0.00 0.00
11:53 am 11:53 Mostly Cloudy 83 28.3 68 20 61 61 S 17 28 29.89 1012 10 16 0.00 0.00
12:53 pm 12:53 Mostly Cloudy 83 28.3 66 18.9 57 57 SW 18 30 29.93 1014 10 16 0.00 0.00
1:53 pm 13:53 Mostly Cloudy 83 28.3 65 18.3 55 55 SW 18 30 29.93 1014 10 16 0.00 0.00
2:53 pm 14:53 Mostly Cloudy 81 27.2 66 18.9 61 61 SSW 13 20 29.92 1013 10 16 0.00 0.00
3:53 pm 15:53 Mostly Cloudy 83 28.3 65 18.3 55 55 SSW 14 22 29.89 1012 10 16 0.00 0.00
4:08 pm 16:08 Mostly Cloudy with Nearby Thunderstorms 82 27.8 65 18.3 56 56 SSW 13 20 29.86 1011 10 16 0.00 0.00
4:32 pm 16:32 Mostly Cloudy with Thunderstorms 82 27.8 66 18.9 58 58 SW 9 15 29.86 1011 10 16 0.00 0.00
4:53 pm 16:53 Mostly Cloudy with Thunderstorms 81 27.2 67 19.4 62 62 SW 10 17 29.90 1012 10 16 0.00 0.00
5:22 pm 17:22 Mostly Cloudy with Thunderstorms 79 26.1 69 20.6 72 72 SW 6 9 29.87 1011 8 13 0.03 0.76
5:29 pm 17:29 Mostly Cloudy with Strong Thunderstorms 79 26.1 70 21.1 74 74 SW 6 9 29.87 1011 6 10 0.05 1.27
5:53 pm 17:53 Mostly Cloudy 78 25.6 71 21.7 79 79 SE 8 13 29.89 1012 10 16 0.08 2.03
6:53 pm 18:53 Cloudy 78 25.6 69 20.6 74 74 SSE 14 22 29.89 1012 10 16 0.00 0.00
7:53 pm 19:53 Cloudy 77 25 68 20 74 74 SSE 7 11 29.89 1012 10 16 0.00 0.00
8:53 pm 20:53 Cloudy with Nearby Thunderstorms 75 23.9 68 20 79 79 SW 13 20 29.88 1012 9 14 0.01 0.25
9:11 pm 21:11 Cloudy with Light Rain 74 23.3 68 20 82 82 SSW 10 17 29.87 1011 10 16 0.00 0.00
9:53 pm 21:53 Cloudy 72 22.2 68 20 87 87 SSE 12 19 29.83 1010 10 16 0.00 0.00
10:53 pm 22:53 Cloudy 71 21.7 67 19.4 87 87 S 13 20 29.85 1011 10 16 0.00 0.00
11:46 pm 23:46 Cloudy with Nearby Thunderstorms 71 21.7 68 20 90 90 N 6 9 29.86 1011 10 16 0.00 0.00
11:53 pm 23:53 Cloudy with Thunderstorms 71 21.7 68 20 90 90 NNE 7 11 29.87 1012 10 16 0.00 0.00

Powered by AerisWeather